Campeche, Mexico

9:43 PM EST on February 09, 2016 (GMT -0500)
Alberto Acuna Ongay

Weather History for MMCP - October, 2013

Change the Weather History Date:

Tuesday, October 1, 2013

  Actual Average Record
Temperature  
Mean Temperature 82 °F -  
Max Temperature 94 °F 87 °F 96 °F (2014)
Min Temperature 71 °F 72 °F 69 °F (2006)
Cooling Degree Days 18    
Growing Degree Days 32 (Base 50)    
Moisture  
Dew Point 76 °F    
Average Humidity 81    
Maximum Humidity 100    
Minimum Humidity 57    
Precipitation  
Precipitation 0.00 in - - ()
Sea Level Pressure  
Sea Level Pressure 29.87 in    
Wind  
Wind Speed 4 mph ()    
Max Wind Speed 12 mph    
Max Gust Speed -    
Visibility 6.4 miles    
Events Rain    
Averages and records for this station are not official NWS values.
T = Trace of Precipitation, MM = Missing Value Source: Averaged Metar Reports

Daily Weather History Graph

Daily Weather History Graph

Search for Another Location

Airport or City:

Trip Planner

Search our weather history database for the weather conditions in past years. The results will help you decide how hot, cold, wet, or windy it might be!

Date:

Astronomy

Oct. 01, 2013 Rise Set
Actual Time 6:52 AM CDT 6:49 PM CDT
Civil Twilight 6:30 AM CDT 7:11 PM CDT
Nautical Twilight 6:05 AM CDT 7:37 PM CDT
Astronomical Twilight 5:39 AM CDT 8:02 PM CDT
Moon 3:50 AM CDT (10/1) 4:34 PM CDT (10/1)
Length of Visible Light 12h 40m
Length of Day
11h 56m
Waning Crescent, 12% of the Moon is Illuminated
Oct 1
Waning Crescent
Oct 4
New
Oct 11
First Quarter
Oct 18
Full
Oct 26
Last Quarter

Hourly Weather History & Observations

Time (CDT) Temp. Heat Index Dew Point Humidity Pressure Visibility Wind Dir Wind Speed Gust Speed Precip Events Conditions
12:50 AM 76 °F - 74 °F 94% 29.90 in 4 mi NNE 6.7 mph - -  
3:50 AM 74 °F - 73 °F 94% 29.88 in 4 mi SSE 2.2 mph - -   Scattered Clouds
5:10 AM 73.4 °F - 71.6 °F 94% 29.88 in 7.0 mi Calm Calm - N/A   Clear
5:42 AM 73.4 °F - 73.4 °F 100% 29.88 in 7.0 mi Calm Calm - N/A   Clear
6:43 AM 73.4 °F - 73.4 °F 100% 29.89 in 7.0 mi Calm Calm - N/A   Partly Cloudy
6:50 AM 73 °F - 72 °F 94% 29.90 in 6 mi Calm Calm - -   Scattered Clouds
7:43 AM 75.2 °F - 73.4 °F 94% 29.90 in 7.0 mi Calm Calm - N/A   Partly Cloudy
8:43 AM 78.8 °F - 75.2 °F 89% 29.90 in 7.0 mi Calm Calm - N/A   Partly Cloudy
9:42 AM 82.4 °F 89.5 °F 75.2 °F 79% 29.90 in 7.0 mi East 4.6 mph - N/A   Partly Cloudy
9:50 AM 86 °F - 80 °F 77% 29.91 in 6 mi ESE 4.5 mph - -   Scattered Clouds
10:40 AM 86.0 °F 96.9 °F 77.0 °F 74% 29.90 in 7.0 mi East 5.8 mph - N/A   Scattered Clouds
12:43 PM 89.6 °F 99.8 °F 75.2 °F 62% 29.88 in 7.0 mi East 5.8 mph - N/A   Scattered Clouds
12:50 PM 90 °F - 76 °F 57% 29.87 in 6 mi East 2.2 mph - -   Partly Cloudy
1:40 PM 89.6 °F 98.2 °F 73.4 °F 59% 29.85 in 7.0 mi East 5.8 mph - N/A   Scattered Clouds
2:43 PM 86.0 °F 99.3 °F 78.8 °F 79% 29.83 in 7.0 mi West 11.5 mph - N/A   Scattered Clouds
3:42 PM 86.0 °F 99.3 °F 78.8 °F 79% 29.82 in 7.0 mi WNW 9.2 mph - N/A   Scattered Clouds
3:50 PM 90 °F - 77 °F 59% 29.82 in 6 mi NW 4.5 mph - -   Scattered Clouds
4:40 PM 86.0 °F 96.9 °F 77.0 °F 74% 29.81 in 7.0 mi WNW 11.5 mph - N/A   Scattered Clouds
5:40 PM 86.0 °F 96.9 °F 77.0 °F 74% 29.81 in 7.0 mi North 11.5 mph - N/A   Partly Cloudy
6:42 PM 84.2 °F 94.1 °F 77.0 °F 79% 29.81 in 7.0 mi North 11.5 mph - N/A   Partly Cloudy
6:50 PM 85 °F - 78 °F 76% 29.83 in 6 mi North 6.7 mph - -  
7:41 PM 82.4 °F 92.4 °F 78.8 °F 89% 29.83 in 7.0 mi North 11.5 mph - N/A   Partly Cloudy
8:42 PM 84.2 °F 94.1 °F 77.0 °F 79% 29.85 in 7.0 mi North 11.5 mph - N/A   Scattered Clouds
9:44 PM 80.6 °F 86.2 °F 75.2 °F 84% 29.88 in 7.0 mi NNE 11.5 mph - N/A   Scattered Clouds
9:50 PM 81 °F - 76 °F 79% 29.90 in 4 mi NE 4.5 mph - -   Scattered Clouds
10:42 PM 77.0 °F - 71.6 °F 83% 29.91 in 7.0 mi East 8.1 mph - N/A Rain Light Rain
11:43 PM 78.8 °F - 75.2 °F 89% 29.91 in 6.0 mi East 11.5 mph - N/A Rain Light Rain